www.pogodaiklimat.ru

Погода и климат >> Архив погоды >> Хорватия >> Карловац


ПОГОДА в Карловаце

  • Прогноз погоды в Карловаце
  • Монитор погоды в Карловаце

АРХИВ ПОГОДЫ в Карловаце

Время (UTC), дата Ветер
(напр.,м/с)
 
Видим.   Явления Облачность Т
(С)
Тd
(С)
f
(%)
Тe
(С)
Тes
(С)
Комфортность P
(гПа)
Po
(гПа)
Тmin
(С)
Tmax
(С)
R
(мм)
R24
(мм)
S
(см)
10 11.08 СВ 2 50 км 9/8 1500 м
[Sc Ac lent]
+26.2 +14.8 49 +29 +31 жарко 1019.7 1007.0
11 11.08 СВ 2 50 км 3/0
[Ac lent]
+25.0 +13.9 50 +27 +40 жарко 1019.3 1006.5
12 11.08 СВ 1 50 км 3/0
[Ac lent]
+27.7 +15.7 48 +31 +44 душно 1018.3 1005.6
13 11.08 СВ 1 50 км ясно +28.4 +15.7 46 +31 +47 душно 1017.4 1004.8
14 11.08 н/о н/о +29.2 +17.5 49 1016.5 1003.8
15 11.08 СВ 1 н/о н/о +29.2 +17.8 50 +34 +34 очень
душно
1015.8 1003.2
16 11.08 СВ 1 н/о н/о +29.3 +17.6 49 +33 +33 душно 1015.4 1002.8
17 11.08 СВ 1 н/о н/о +29.1 +17.7 50 +33 +33 очень
душно
1014.9 1002.3
18 11.08 С 1 50 км ясно +26.1 +19.8 68 +32 +32 очень
душно
1015.0 1002.3 +28.9
19 11.08 ЮВ 1 50 км ясно +23.0 +19.3 80 +29 +29 очень
душно
1015.3 1002.5
20 11.08 ЮВ 1 50 км ясно +20.8 +19.7 93 +26 +26 душно 1015.4 1002.5
21 11.08 Ю 1 н/о н/о +19.9 +19.1 95 +24 +24 комфорт 1015.2 1002.2
00 12.08 Ю 1 н/о н/о +18.6 +18.4 99 +21 +21 комфорт 1014.5 1001.4
03 12.08 Ю 1 9000 м дымка ясно +17.4 +16.7 96 +18 +18 1013.9 1000.9
04 12.08 СЗ 1 6000 м дымка ясно +17.3 +16.6 96 +18 +18 1013.9 1000.9
05 12.08 штиль 0 9000 м дымка ясно +17.5 +16.8 96 +17 +18 1014.1 1001.1
06 12.08 ЮВ 1 15 км ясно +20.1 +19.0 93 +25 +28 комфорт 1014.5 1001.6 +17.2
07 12.08 СВ 1 30 км ясно +22.8 +20.9 89 +30 +37 очень
душно
1014.5 1001.7
08 12.08 В 1 50 км ясно +24.9 +19.8 73 +30 +42 душно 1013.9 1001.2
09 12.08 В 1 50 км ясно +26.9 +19.4 64 +33 +48 очень
душно
1013.8 1001.2
10 12.08 СВ 1 50 км ясно +28.1 +19.8 61 +34 +52 опасность
солнечного
удара
1013.4 1000.8
11 12.08 В 1 50 км 1/0
[Ci sp]
+29.9 +18.6 51 +35 +54 опасность
солнечного
удара
1013.2 1000.7
12 12.08 В 1 50 км ясно +31.4 +19.8 50 +37 +55 опасность
солнечного
удара
1012.2 999.8
13 12.08 С 1 50 км ясно +32.0 +21.0 52 +39 +54 опасность
солнечного
удара
1011.8 999.4
14 12.08 СВ 1 н/о н/о +32.9 +23.3 57 +43 +43 опасность
перегрева
1011.0 998.6
15 12.08 СВ 1 н/о н/о +33.1 +23.2 56 +44 +44 опасность
перегрева
1010.4 998.0
16 12.08 С 1 н/о н/о +33.3 +24.3 59 +45 +45 опасность
перегрева
1009.9 997.5
17 12.08 штиль 0 н/о н/о +31.9 +25.1 67 +45 +45 опасность
перегрева
1009.8 997.3
18 12.08 штиль 0 50 км 3/0
[Ac lent Cs]
+30.1 +25.1 75 +44 +44 опасность
перегрева
1009.6 997.2 +32.9
19 12.08 Ю 1 40 км 3/0
[Ac As Cs]
+27.0 +24.8 88 +39 +39 очень
душно
1010.1 997.6
20 12.08 СЗ 1 40 км 3/0
[Ac lent Ci fib]
+25.2 +23.6 91 +34 +34 очень
душно
1010.5 997.9
21 12.08 штиль 0 н/о н/о +24.6 +23.3 92 +33 +33 очень
душно
1010.8 998.0
00 13.08 штиль 0 н/о н/о +23.0 +22.6 98 +32 +32 очень
душно
1010.7 997.9
03 13.08 СВ 1 30 км 3/0
[Ac lent Ci fib]
+21.5 +20.9 96 +27 +27 душно 1010.7 997.9
04 13.08 СВ 1 20 км 8/0
[Ac As]
+21.8 +21.2 96 +28 +28 душно 1011.5 998.7
05 13.08 В 2 25 км 9/3 600 м
[Frnb Ac As Cc]
+22.1 +21.0 93 +29 +29 очень
душно
1012.6 999.8
06 13.08 В 1 30 км 8/3 600 м
[Frnb Ac As]
+21.8 +19.9 89 +27 +28 душно 1013.7 1000.9 +21.8
07 13.08 ЮВ 2 30 км 10/3 1000 м
[Sc Ac As]
+21.6 +18.7 84 +26 +28 душно 1014.2 1001.4
08 13.08 В 1 30 км 10/4 1000 м
[Sc Ac As]
+21.5 +17.7 79 +26 +28 душно 1015.6 1002.7
09 13.08 ЮВ 1 30 км 10/5 1000 м
[Sc Ac As]
+21.9 +16.1 70 +26 +28 душно 1015.7 1002.8
10 13.08 В 2 30 км 10/5 1000 м
[Sc Ac As]
+22.7 +15.3 63 +27 +29 душно 1015.8 1003.0
11 13.08 СВ 2 30 км 8/3 1000 м
[Sc Ac As Cc]
+25.0 +15.2 55 +28 +35 жарко 1015.4 1002.7
12 13.08 СВ 3 30 км 9/3 1000 м
[Cu hum Ac As]
+24.8 +15.5 56 +28 +31 жарко 1015.3 1002.6
13 13.08 СВ 3 30 км 9/3 1000 м
[Sc Ac As]
+25.1 +14.8 53 +28 +31 жарко 1014.6 1001.9
14 13.08 В 1 н/о н/о +25.4 +19.4 69 +31 +31 очень
душно
1014.3 1001.5
15 13.08 ЮВ 1 н/о н/о +24.7 +17.0 62 +28 +28 душно 1014.1 1001.3
16 13.08 В 1 н/о н/о +24.0 +18.3 70 +28 +28 душно 1013.7 1000.9
17 13.08 СВ 1 н/о н/о +22.8 +18.0 74 +28 +28 душно 1013.8 1000.9
18 13.08 СВ 1 20 км 10/6 1000 м
[Sc As op]
+22.3 +16.3 69 +27 +27 душно 1013.7 1000.9 +25.7
19 13.08 В 1 20 км 10/0
[Ac und]
+21.3 +15.8 71 +25 +25 комфорт 1013.9 1001.0
20 13.08 СВ 1 20 км 10/0
[Ac und]
+20.6 +15.6 73 +25 +25 комфорт 1013.9 1001.0
21 13.08 СЗ 1 н/о н/о +20.9 +15.9 73 +25 +25 комфорт 1014.1 1001.1
00 14.08 СВ 2 н/о н/о +17.5 +15.7 89 +18 +18 1014.6 1001.5
03 14.08 СВ 1 15 км слаб. дождь 10/3 600 м
[Frnb Ac As]
+15.9 +14.9 94 +17 +17 1015.8 1002.7
04 14.08 В 2 15 км дождь 10/3 600 м
[Frnb As op]
+15.7 +14.9 95 +16 +16 1015.7 1002.6
05 14.08 СЗ 1 20 км слаб. дождь 10/4 1000 м
[Frnb As op]
+15.4 +14.5 94 +16 +16 1016.9 1003.7
06 14.08 СВ 1 20 км {дождь} 10/6 1000 м
[Sc Ac As]
+15.7 +14.9 95 +16 +17 1016.5 1003.3 +15.4 21
07 14.08 ЮЗ 1 20 км {дождь} 10/6 1000 м
[Sc Ac As]
+16.1 +15.1 94 +17 +18 1017.1 1004.0
08 14.08 ЮВ 1 20 км {дождь} 9/5 1000 м
[Sc Ac und]
+16.9 +15.1 89 +18 +20 1017.0 1003.9
09 14.08 СВ 1 30 км {дождь} 9/8 600 м
[Cu Sc Ac As]
+19.2 +14.0 72 +22 +24 комфорт 1016.8 1003.8
10 14.08 Ю 1 40 км {дождь} 9/8 600 м
[Cu Sc Ac As]
+18.9 +14.4 75 +21 +21 комфорт 1017.4 1004.3
11 14.08 Ю 1 40 км 9/6 600 м
[Cu Sc Ac As]
+19.2 +13.6 70 +22 +25 комфорт 1017.3 1004.3
12 14.08 Ю 1 40 км 8/5 600 м
[Cb calv Ac As]
+21.1 +13.5 62 +24 +29 комфорт 1016.8 1003.9
13 14.08 Ю 2 40 км 8/5 600 м
[Cb calv As trans]
+21.4 +13.3 60 +24 +28 комфорт 1016.7 1003.8
14 14.08 ЮЗ 1 н/о н/о +21.8 +14.8 64 +25 +25 комфорт 1016.5 1003.5
15 14.08 ЮЗ 1 н/о н/о +20.8 +15.4 71 +25 +25 комфорт 1016.5 1003.5
16 14.08 ЮЗ 1 н/о н/о +20.6 +14.6 68 +24 +24 комфорт 1016.3 1003.3
17 14.08 З 1 н/о н/о +20.1 +14.7 71 +24 +24 комфорт 1016.5 1003.5
18 14.08 Ю 1 30 км 9/9 1000 м
[Sc]
+19.5 +15.0 75 +22 +22 комфорт 1016.8 1003.8 +21.4
19 14.08 ЮЗ 1 30 км 9/9 1000 м
[Sc]
+18.6 +14.9 79 +20 +20 1017.1 1004.1
20 14.08 Ю 1 30 км 8/8 1000 м
[Sc]
+18.5 +16.6 89 +20 +20 1017.7 1004.7
21 14.08 штиль 0 н/о н/о +17.0 +16.3 96 +17 +17 1018.0 1004.8
00 15.08 штиль 0 н/о н/о +14.0 +13.6 97 +14 +14 1018.2 1004.9
03 15.08 Ю 1 500 м туман 5/3 1000 м
[Sc Ac lent]
+12.3 +11.7 96 +12 +12 1017.9 1004.6
04 15.08 штиль 0 400 м туман ясно +12.3 +11.7 96 +12 +12 1018.0 1004.7
05 15.08 В 1 600 м туман ясно +12.1 +11.5 96 +12 +13 1018.2 1004.8
06 15.08 В 1 800 м туман ясно +13.1 +12.6 97 +13 +16 1018.2 1004.9 +12.1
07 15.08 СВ 1 15 км {туман} 3/3 600 м
[St]
+15.5 +15.0 97 +16 +21 1018.1 1004.9
08 15.08 В 1 30 км {туман} 1/0
[Ci fib]
+19.1 +14.8 76 +22 +32 комфорт 1017.7 1004.7
09 15.08 СЗ 1 30 км {туман} 3/1 1000 м
[Cu med, cong Ci fib]
+20.6 +11.5 56 +24 +36 комфорт 1017.5 1004.5
10 15.08 С 1 40 км {туман} 4/3 1000 м
[Cu med, cong Ci fib]
+22.6 +13.6 57 +26 +38 жарко 1016.8 1003.9
11 15.08 СВ 2 50 км {туман} 5/3 1000 м
[Cu med, cong Ci fib]
+23.1 +10.2 44 +25 +35 комфорт 1016.4 1003.6
12 15.08 В 2 50 км {туман} 4/3 1000 м
[Cu med, cong Ci fib]
+23.9 +10.2 42 +25 +35 комфорт 1015.7 1002.9
13 15.08 Ю 1 50 км 5/3 1000 м
[Cu med, cong Ac As Ci fib]
+24.9 +9.6 38 +26 +34 жарко 1015.5 1002.7
14 15.08 В 1 н/о н/о +24.5 +9.3 38 +25 +25 комфорт 1015.0 1002.2
15 15.08 СВ 1 н/о н/о +25.0 +9.8 38 +26 +26 жарко 1014.5 1001.7
16 15.08 В 1 н/о н/о +24.2 +12.2 47 +26 +26 жарко 1014.3 1001.5
17 15.08 В 1 н/о н/о +23.8 +14.8 57 +27 +27 жарко 1014.4 1001.5
18 15.08 Ю 1 50 км ясно +22.5 +13.3 56 +25 +25 комфорт 1014.5 1001.7 +24.9
19 15.08 штиль 0 50 км ясно +18.4 +15.0 81 +19 +19 1014.8 1001.8
20 15.08 С 1 40 км ясно +15.7 +14.2 91 +16 +16 1015.6 1002.5
21 15.08 штиль 0 н/о н/о +14.6 +14.0 96 +14 +14 1016.1 1002.8
00 16.08 штиль 0 н/о н/о +12.8 +12.4 97 +12 +12 1016.4 1003.0
03 16.08 ЮВ 1 35 км 4/3 1500 м
[Sc Ac lent Ci fib]
+12.5 +11.4 93 +12 +12 1016.3 1003.0
04 16.08 Ю 1 35 км 4/3 1500 м
[Sc Ac lent]
+12.4 +11.5 94 +12 +12 1016.9 1003.6
05 16.08 ЮВ 1 40 км 8/3 1500 м
[Sc Ac lent]
+13.1 +12.6 97 +13 +13 1017.0 1003.7
06 16.08 С 1 25 км 10/10 1500 м
[Sc]
+14.0 +13.0 94 +14 +14 1017.9 1004.6 +12.4
07 16.08 С 1 25 км 10/6 1500 м
[Sc As op]
+14.6 +13.7 94 +15 +15 1018.3 1005.1
08 16.08 ЮЗ 1 25 км 10/8 1500 м
[Sc As op]
+16.2 +14.0 87 +17 +17 1018.8 1005.6
09 16.08 СЗ 1 30 км 9/3 1500 м
[Sc As op]
+18.0 +15.1 83 +19 +22 1018.9 1005.8
10 16.08 С 1 30 км слаб. дождь 8/3 1500 м
[Sc Ac As]
+18.9 +13.5 71 +21 +27 комфорт 1018.9 1005.9
11 16.08 СВ 1 30 км {дождь} 8/3 1000 м
[Sc Ac As]
+19.9 +14.9 73 +23 +30 комфорт 1018.8 1005.8
12 16.08 В 2 30 км 8/4 600 м
[Cb calv Ac As]
+20.0 +13.5 66 +23 +27 комфорт 1018.7 1005.7 0.0
13 16.08 СВ 1 40 км {дождь} 6/3 600 м
[Cb calv Ac As]
+21.0 +13.2 61 +25 +32 комфорт 1018.1 1005.2
14 16.08 СВ 1 н/о н/о +22.6 +14.8 61 +26 +26 жарко 1017.6 1004.6
15 16.08 н/о н/о +23.8 +13.1 51 1017.1 1004.2
16 16.08 С 1 н/о н/о +23.6 +12.6 50 +26 +26 жарко 1016.8 1003.9
17 16.08 штиль 0 н/о н/о +23.3 +13.8 55 +27 +27 душно 1016.7 1003.8
18 16.08 СВ 1 50 км 3/1 1500 м
[Sc Ac lent]
+20.2 +14.9 72 +24 +24 комфорт 1017.1 1004.1 +23.0 0.0
19 16.08 СВ 1 50 км 1/0
[Ac lent]
+17.4 +15.1 86 +18 +18 1017.9 1004.8
20 16.08 Ю 1 50 км ясно +15.7 +14.4 92 +16 +16 1018.2 1005.0
21 16.08 штиль 0 н/о н/о +14.4 +13.8 96 +14 +14 1018.6 1005.3
00 17.08 штиль 0 н/о н/о +12.5 +12.1 97 +12 +12 1018.6 1005.2
03 17.08 Ю 1 50 км 1/0
[Ci fib]
+12.0 +11.1 94 +12 +12 1018.1 1004.7
04 17.08 ЮВ 1 50 км 1/0
[Ci fib]
+11.1 +10.2 94 +11 +11 1018.1 1004.7
05 17.08 СВ 1 20 км ясно +11.0 +9.9 93 +11 +11 1018.2 1004.8
06 17.08 СВ 1 50 км 3/0
[Ci fib]
+13.7 +12.5 92 +14 +17 1018.5 1005.2 +11.0
07 17.08 СВ 1 50 км 3/0
[Ci fib]
+17.5 +12.8 74 +19 +25 1018.8 1005.7
08 17.08 ЮЗ 1 50 км 6/0
[Cs]
+19.7 +13.1 66 +22 +32 комфорт 1018.7 1005.7
09 17.08 СВ 1 50 км 9/0
[Ac lent Cs]
+21.6 +13.1 58 +24 +33 комфорт 1018.0 1005.1
10 17.08 З 1 50 км 6/0
[Ac lent Cs]
+23.2 +13.9 56 +27 +39 душно 1017.7 1004.9
11 17.08 З 1 50 км 5/0
[Ac lent Cs]
+25.0 +14.4 52 +28 +41 жарко 1017.2 1004.4
12 17.08 СВ 1 50 км 3/0
[Ci fib]
+25.9 +14.2 48 +28 +44 жарко 1016.4 1003.7
13 17.08 СВ 1 50 км 1/0
[Ci fib]
+26.6 +13.8 45 +29 +43 жарко 1015.9 1003.2
14 17.08 В 1 н/о н/о +27.7 +14.1 43 +30 +30 жарко 1015.4 1002.7
15 17.08 В 1 н/о н/о +27.9 +14.9 45 +30 +30 жарко 1015.0 1002.3
16 17.08 ЮВ 1 н/о н/о +27.9 +14.9 45 +30 +30 жарко 1014.7 1002.0
17 17.08 СВ 1 н/о н/о +26.1 +19.3 66 +31 +31 очень
душно
1014.7 1001.9
18 17.08 СЗ 1 50 км 8/0
[As trans Cs]
+22.8 +18.4 76 +28 +28 душно 1015.0 1002.2 +27.7
19 17.08 СВ 1 40 км 8/0
[Cs]
+20.1 +17.9 87 +24 +24 комфорт 1015.2 1002.3
20 17.08 В 1 40 км 5/0
[Cs]
+18.0 +16.9 93 +19 +19 1015.6 1002.6
21 17.08 Ю 1 н/о н/о +16.9 +16.3 96 +18 +18 1015.5 1002.3
00 18.08 штиль 0 н/о н/о +14.8 +14.2 96 +14 +14 1015.8 1002.5
03 18.08 Ю 1 30 км 6/3 1500 м
[Sc Ac lent Ci fib]
+14.0 +13.1 94 +14 +14 1015.5 1002.3
04 18.08 В 1 10 км 3/0
[Ac lent Ci fib]
+12.8 +11.7 93 +13 +13 1015.6 1002.3
05 18.08 Ю 1 30 км 3/0
[Ac lent Ci fib]
+14.0 +13.3 96 +14 +15 1015.5 1002.3
06 18.08 СВ 1 50 км 1/0
[Ci fib]
+16.8 +15.6 93 +18 +20 1015.5 1002.4 +12.3
07 18.08 В 1 50 км 1/0
[Ci fib]
+19.9 +15.1 74 +23 +30 комфорт 1015.3 1002.4
08 18.08 Ю 1 50 км ясно +22.7 +14.8 61 +26 +37 жарко 1015.2 1002.4
09 18.08 Ю 1 50 км ясно +26.0 +13.8 47 +28 +43 жарко 1015.1 1002.4
10 18.08 З 1 50 км ясно +27.6 +13.9 43 +30 +47 жарко 1014.9 1002.3

 

Местоположение метеостанции Карловац (Хорватия): широта 45.50 долгота 15.57 высота над уровнем моря 111 м.

В архиве по умолчанию представлена погода в Карловаце за последнюю неделю. Архивные данные за месяц целиком и за предыдущие месяцы, начиная с января 2011 года, Вы можете получить, выбрав интересующий диапазон дат из раскрывающегося списка и нажав кнопку "Ввод!".


*Определитесь, кто Вы:
робот инопланетянин человек

Внимание! Время в таблицах - всемирное. Для получения местного времени необходимо прибавить поправку, которая равна 1 ч.

Смотрите также архив погоды в соседних городах и на ближайших метеорологических станциях:

Погода в Чрномеле (Словения) (34 км)
Погода в Огулине (Хорватия) (37 км)
Погода в Церки-об-Крки (Словения) (45 км)
Погода в Ново-Месте (Словения) (45 км)
Погода в Загреб аэропорту (Хорватия) (47 км)
Погода в Загреб-Градеце (Хорватия) (48 км)
Погода в Загребе (Хорватия) (50 км)
Погода в Пунтиярке (Хорватия) (56 км)
Погода в Кочевье (Словения) (58 км)
Погода в Сисаке (Хорватия) (62 км)

Пояснения к столбцам:

Ветер - указаны скорость ветра в м/с - средняя за 10 мин, порывы в срок и между сроками (в фигурных скобках) и направление, откуда дует ветер: С - северный, СВ - северо-восточный, В - восточный, ЮВ - юго-восточный, Ю - южный, ЮЗ - юго-западный, З - западный, СЗ - северо-западный.
Видимость - горизонтальная дальность видимости в метрах или километрах. При видимости от 1 до 10 км при отсутствии осадков обычно наблюдается дымка, при ухудшении видимости до 1 км и менее - туман. В сухую погоду видимость может ухудшаться дымом, пылью или мглою.
Явления - указаны атмосферные явления, наблюдавшиеся в срок или в последний час перед сроком; фигурными скобками обозначены явления, наблюдавшиеся между сроками (за 1-3 часа до срока); квадратными скобками обозначены град или гололедные отложения с указанием их диаметра в мм.
Облачность - указаны через наклонную черту общая и нижняя облачность в баллах и высота нижней границы облаков в метрах; квадратными скобками обозначены формы облаков: Ci - перистые, Cs - перисто-слоистые, Cc - перисто-кучевые, Ac - высококучевые, As - высокослоистые, Sc - слоисто-кучевые, Ns - слоисто-дождевые, Cu - кучевые, Cb - кучево-дождевые. Подробнее классификацию облаков см. в Атласе облаков (PDF).
T - Температура воздуха - температура, измеренная на высоте 2 м над землей.
Td - Температура точки росы - температура, при понижении до которой содержащийся в воздухе водяной пар достигнет насыщения.
f - Относительная влажность воздуха - влажноcть воздуха, измеренная на высоте 2 м над землей.
Te - Эффективная температура - температура, которую ощущает одетый по сезону человек в тени. Характеристика душности погоды. При расчете учитывается влияние влажности воздуха и скорости ветра на теплоощущения человека.
Tes - Эффективная температура на солнце - температура, которую ощущает человек, с поправкой на солнечный нагрев. Характеристика знойности погоды. Зависит от высоты солнца над горизонтом, облачности и скорости ветра. Ночью, в пасмурную погоду, а также при ветре 12 м/с и более поправка равна нулю.
P - Атмосферное давление - приведенное к уровню моря атмосферное давление.
Po - Атмосферное давление - измеренное на уровне метеостанции атмосферное давление.
Tmin - Минимальная температура - минимум температуры воздуха на высоте 2 м над землей.
Tmax - Максимальная температура - максимум температуры воздуха на высоте 2 м над землей.
R - Количество осадков - Количество выпавших осадков за период времени, мм. При наведении курсора мыши на число - период времени, за который выпало указанное количество осадков.
R24 - Количество осадков - Количество выпавших осадков за 24 часа, мм.
S - Снежный покров - Высота снежного покрова, см. При наведении курсора мыши на число - состояние снежного покрова и степень покрытия местности в баллах.